[Iaude] MPEC O02: 2024 NM3 [a=0.80,e=0.28,i=12.4,H=25.0]
    mpec at cfa.harvard.edu 
    mpec at cfa.harvard.edu
       
    Tue Jul 16 09:03:10 EDT 2024
    
    
  
M.P.E.C. 2024-O02                                 Issued 2024 July 16, 13:01 UT
     The Minor Planet Electronic Circulars contain information on unusual
         minor planets, routine data on comets and natural satellites,
         and occasional editorial announcements.  They are published
    on behalf of Division F of the International Astronomical Union by the
          Minor Planet Center, Smithsonian Astrophysical Observatory,
                          Cambridge, MA 02138, U.S.A.
			  
             Prepared using the Tamkin Foundation Computer Network
                              MPC at CFA.HARVARD.EDU
            URL https://www.minorplanetcenter.net/    ISSN 1523-6714
                                    2024 NM3                                    
Observations:
     K24N03M* C2024 07 14.32384201 22 30.890-20 40 28.78         18.22oVEO002W68
     K24N03M  C2024 07 14.32699601 22 28.423-20 39 31.54         18.24oVEO002W68
     K24N03M  C2024 07 14.33014901 22 25.985-20 38 35.45         17.71oVEO002W68
     K24N03M  C2024 07 14.34052401 22 17.731-20 35 24.83         17.96oVEO002W68
     K24N03M  C2024 07 14.51249701 20 41.107-19 45 49.39         18.79oVEO002T05
     K24N03M  C2024 07 14.51294901 20 40.738-19 45 40.46         18.78oVEO002T05
     K24N03M  C2024 07 14.51340101 20 40.418-19 45 32.33         18.90oVEO002T05
     K24N03M  C2024 07 14.51385301 20 40.001-19 45 23.29         18.25oVEO002T05
     K24N03M  C2024 07 14.51430501 20 39.631-19 45 13.61         18.31oVEO002T05
     K24N03M  C2024 07 15.31296701 09 31.934-13 38 53.63         17.87oVEO002W68
     K24N03M  C2024 07 15.31522001 09 29.170-13 37 39.04         17.46oVEO002W68
     K24N03M  C2024 07 15.32064601 09 22.363-13 34 34.25         17.93oVEO002W68
     K24N03M  C2024 07 15.32740001 09 13.826-13 30 44.21         17.82oVEO002W68
     K24N03M  C2024 07 15.37674901 08 08.89 -13 01 58.8                WEO002X09
     K24N03M  C2024 07 15.37718401 08 08.208-13 01 44.80         16.80oVEO002W68
     K24N03M  C2024 07 15.37763501 08 07.582-13 01 28.24         17.45oVEO002W68
     K24N03M  C2024 07 15.37808501 08 07.126-13 01 15.60         18.15oVEO002W68
     K24N03M  C2024 07 15.37853601 08 06.379-13 00 56.23         17.36oVEO002W68
     K24N03M  C2024 07 15.37898701 08 05.801-13 00 40.54         17.61oVEO002W68
     K24N03M  C2024 07 15.37958101 08 05.02 -13 00 17.2                WEO002X09
     K24N03M  C2024 07 15.39749901 07 40.43 -12 49 31.6                WEO002X09
     K24N03M  C2024 07 15.40038101 07 36.47 -12 47 47.5                WEO002X09
     K24N03M  C2024 07 15.44701601 06 30.506-12 18 49.90         18.38oVEO002W68
     K24N03M  C2024 07 15.49033201 06 35.573-12 01 45.16         17.58oVEO002T05
     K24N03M  C2024 07 15.49078401 06 35.210-12 01 33.06         19.01oVEO002T05
     K24N03M  C2024 07 15.49123701 06 34.330-12 01 09.80         17.14oVEO002T05
     K24N03M  C2024 07 15.49168901 06 33.806-12 00 53.75         17.54oVEO002T05
     K24N03M  C2024 07 15.49214101 06 33.233-12 00 37.55         17.46oVEO002T05
     K24N03M KC2024 07 16.02027800 54 20.40 -05 08 58.5          17.4 GVEO002L01
     K24N03M KC2024 07 16.02099500 54 19.14 -05 08 17.3          17.5 GVEO002L01
     K24N03M KC2024 07 16.02177700 54 17.72 -05 07 32.5          17.8 GVEO002L01
     K24N03M KC2024 07 16.02259100 54 16.24 -05 06 45.9          17.5 GVEO002L01
     K24N03M KC2024 07 16.02341300 54 14.77 -05 05 58.9          17.5 GVEO002L01
     K24N03M KC2024 07 16.02420400 54 13.33 -05 05 13.1          17.5 GVEO002L01
     K24N03M KC2024 07 16.02505500 54 11.81 -05 04 24.5          17.5 GVEO002L01
     K24N03M KB2024 07 16.05127 00 53 20.60 -04 39 37.3          17.1 GXEO002G00
     K24N03M KB2024 07 16.05317 00 53 17.04 -04 37 46.1          17.0 GXEO002G00
     K24N03M KB2024 07 16.05520 00 53 13.21 -04 35 46.7          17.5 GXEO002G00
     K24N03M KB2024 07 16.09058100 52 17.99 -03 59 23.6          17.3 GXEO002958
     K24N03M KB2024 07 16.09137500 52 16.44 -03 58 34.9          17.1 GXEO002958
     K24N03M KB2024 07 16.09487300 52 09.62 -03 55 02.2          17.3 GXEO002958
     K24N03M KB2024 07 16.09684300 52 05.76 -03 53 02.3          17.5 GXEO002958
     K24N03M KB2024 07 16.09832100 52 02.87 -03 51 33.0          17.3 GXEO002958
     K24N03M KB2024 07 16.10306600 51 53.44 -03 46 42.0          17.5 GXEO002958
     K24N03M 0B2024 07 16.18520600 48 44.088-01 59 56.48         17.4 VZEO002M49
     K24N03M 0B2024 07 16.18732500 48 39.199-01 57 35.54         17.2 VZEO002M49
     K24N03M 0B2024 07 16.18940400 48 34.417-01 55 17.11         17.1 VZEO002M49
     K24N03M (C2024 07 16.21958 00 48 02.39 -01 37 29.4          17.3 GVEO002G40
     K24N03M (C2024 07 16.22263 00 47 55.27 -01 34 02.3          17.3 GVEO002G40
     K24N03M KC2024 07 16.44692 00 40 23.899+03 00 52.85         19.5 GVEO002U52
     K24N03M KC2024 07 16.44760 00 40 22.128+03 01 48.58         19.3 GVEO002U52
     K24N03M KC2024 07 16.44830 00 40 20.318+03 02 45.42         19.0 GVEO002U52
Observer details:
958 Observatoire de Dax.  Observers P. Dupouy, J. Laborde.  Measurer P.
    Dupouy.  0.30-m f/5 Schmidt-Cassegrain + CMO, 0.50-m f/4.5 Reflector +
    CMO.
G00 AZM Martinsberg, Oed.  Observers M. Jaeger, E. Prosperi.  Measurer M.
    Jaeger.  0.40-m f/3.2 reflector + CMO.
G40 Slooh.com Canary Islands Observatory.  Observer K. Dankov.  0.5-m f/6.8
    Corrected Dall-Kirkham + CCD.
L01 Visnjan Observatory, Tican.  Observers K. Korlevic, L. Poropat.  Measurer
    K. Korlevic.  1.0-m f/2.9 reflector + CCD.
M49 IAS Remote Observatory, Hakos.  Observers D. Husar, M. Junius, L. Demetz,
    P. Ditz, R. Hellot, T. Steinbach.  Measurer D. Husar.  0.30-m f/4.0
    reflector + CMO.
T05 ATLAS-HKO, Haleakala.  Observers L. Denneau, R. Siverd, J. Tonry, H.
    Weiland.  Measurers L. Denneau, N. Erasmus, A. Fitzsimmons, J. Robinson,
    R. Siverd, J. Tonry, H. Weiland.  0.5-m Reflector + CCD.
U52 Shasta Valley Observatory, Grenada.  Observers J. E. Rogers, B. Haeusler.
    Measurers J. E. Rogers, D. Parrott.  0.30-m f/5.2 Helin Telescope + CCD.
W68 ATLAS Chile, Rio Hurtado.  Observers L. Denneau, R. Siverd, J. Tonry, H.
    Weiland.  Measurers L. Denneau, N. Erasmus, A. Fitzsimmons, J. Robinson,
    R. Siverd, J. Tonry, H. Weiland.  0.5-m Reflector + CCD.
X09 Deep Random Survey, Rio Hurtado.  Observers A. Schnabel, D. Ruhela.
    Measurer S. Deen.  0.43-m reflector + CMOS.
Orbital elements:
2024 NM3                                                 Earth MOID = 0.0018 AU
Epoch 2024 Mar. 31.0 TT = JDT 2460400.5                 Veres                   
M  42.80650              (2000.0)            P               Q                  
n   1.38033799     Peri.  173.39739     -0.30983840     -0.93046325             
a   0.7988755      Node   294.50486     +0.86220830     -0.18827936             
e   0.2775913      Incl.   12.40986     +0.40074558     -0.31430720             
P   0.71           H   25.09          G   0.15           U   6                  
Residuals in seconds of arc
240714 W68  0.0   0.3+    240715 W68  0.2+  0.4-    240716 G00  0.2-  1.1+
240714 W68  0.2-  0.4+    240715 X09  0.3-  0.9+    240716 G00  0.2-  0.9+
240714 W68  0.3+  0.8-    240715 X09  0.3-  0.5+    240716 958  0.1+  0.0
240714 W68  0.2-  0.3+    240715 X09  0.2+  0.3-    240716 958  0.0   0.5+
240714 T05  0.4+  0.3+    240715 W68  0.6-  3.8+    240716 958  0.0   0.4+
240714 T05  0.3+  0.3+    240715 T05  0.2+  0.4+    240716 958  0.1+  0.2+
240714 T05  0.8+  0.5-    240715 T05 (3.4+  4.6-)   240716 958  0.3+  0.7-
240714 T05  0.0   0.3-    240715 T05 (0.9-  1.6+)   240716 958  0.7-  0.2-
240714 T05  0.1-  0.4+    240715 T05  0.0   0.5+    240716 M49  0.0   0.1+
240715 W68  0.4-  0.3+    240715 T05  0.1+  0.4-    240716 M49  0.1-  0.1+
240715 W68  0.3+  1.3-    240716 L01  0.5-  0.3+    240716 M49  0.1+  0.1+
240715 W68  0.2+  0.4-    240716 L01  0.1-  0.5+    240716 G40  0.6+  0.6-
240715 W68  0.4+  0.5-    240716 L01  0.4-  0.5+    240716 G40  0.1+  0.7-
240715 X09  0.0   0.5+    240716 L01  0.6-  0.4+    240716 U52  0.3-  0.1+
240715 W68  0.4-  0.2-    240716 L01  0.4-  0.3+    240716 U52  0.1-  0.0
240715 W68  0.7-  0.3+    240716 L01  0.6-  0.7+    240716 U52  0.0   0.1+
240715 W68 (1.6+  3.2-)   240716 L01  0.3-  0.4+
240715 W68  0.3-  0.1+    240716 G00  0.5-  1.6+
Ephemeris:
2024 NM3                 a,e,i = 0.80, 0.28, 12                  q = 0.5771
Date    TT    R. A. (2000) Decl.     Delta      r    Elong.  Phase     V
2024 06 16    01 58 48.3 -37 25 26   0.1275  1.0009    79.7    93.1    23.9
...
2024 07 01    01 54 01.1 -35 30 56   0.06956 1.0185    89.6    86.5    22.4
...
2024 07 09    01 46 03.7 -31 56 21   0.03668 1.0206    95.2    82.8    20.9
...
2024 07 15    01 13 56.0 -16 25 04   0.01223 1.0189   101.4    78.0    18.3
2024 07 16    00 54 13.5 -05 16 25   0.0085971.0184   103.0    76.5    17.5
2024 07 17    00 12 03.5 +18 48 50   0.0058221.0177   103.6    76.1    16.6
...
2024 07 23    14 41 47.2 +49 04 28   0.02330 1.0121    80.0    98.7    20.5
...
2024 07 31    14 15 14.0 +42 42 29   0.05634 1.0001    73.0   103.9    22.7
...
2024 08 15    13 59 39.9 +40 18 15   0.1165  0.9639    62.1   111.7    24.6
M. P. C. Staff               (C) Copyright 2024 MPC           M.P.E.C. 2024-O02
    
    
More information about the Iaude
mailing list